Theta_e
324 330 331 331 328 324 318 316 314 313 311 310 309 309 310 311 314 317 313 314 318 319 319 319 318 317 318 320 322 320 318 315 312 312 312 312 312 312 312 313 313 314 314
331 329 325 322 318 314 313 313 312 309 307 306 306 307 307 312 312 313 307 305 313 314 314 315 315 317 318 322 320 317 315 312 311 310 310 309 310 310 311 311 311 311 312
326 322 319 315 311 311 310 310 308 306 302 302 302 305 308 306 304 301 299 298 300 307 310 312 313 315 320 319 317 313 311 310 309 308 308 308 308 308 309 309 310 310 310
320 316 313 308 306 306 306 305 305 300 298 299 300 302 302 303 300 297 295 296 297 297 301 312 313 314 313 313 311 310 309 308 307 306 306 306 306 307 307 307 308 308 309
313 311 307 304 303 302 302 303 300 298 296 298 301 299 298 298 297 294 292 293 294 294 295 305 304 304 305 306 307 308 307 307 305 305 304 304 305 305 305 306 306 306 307
307 305 302 301 300 298 297 299 298 297 295 296 301 297 296 296 294 291 289 292 292 292 296 295 292 290 296 299 301 304 305 304 304 303 303 303 303 303 304 304 304 305 305
304 302 300 298 297 295 295 296 297 295 294 294 296 297 295 293 292 290 288 289 290 293 292 290 288 286 286 293 296 299 301 302 302 301 301 301 301 302 302 303 303 303 304
300 299 297 296 295 293 293 293 294 293 293 293 292 293 289 292 291 289 287 288 287 290 289 287 286 285 284 284 288 294 297 298 299 299 299 299 300 300 300 301 302 302 302
298 297 295 295 294 293 291 291 292 292 291 291 291 290 286 285 287 291 285 285 286 287 286 285 285 284 283 283 285 287 292 293 295 296 297 297 298 298 299 300 300 300 301
296 295 294 293 292 291 290 290 291 290 289 288 289 290 287 287 283 282 286 284 285 286 283 283 282 283 282 282 284 286 289 290 291 292 293 294 295 296 297 298 298 299 299
294 294 293 291 291 290 289 288 288 288 287 286 286 286 287 284 284 282 279 281 282 283 284 282 281 280 281 281 281 283 287 287 288 290 290 291 292 293 295 296 296 297 297
292 291 292 291 290 290 289 289 286 286 285 284 284 284 283 281 280 279 278 278 279 281 283 281 280 279 280 280 282 284 285 285 287 288 288 288 289 291 292 293 294 294 295
290 291 291 290 290 290 288 286 285 284 283 282 282 282 282 282 282 282 281 278 278 279 281 280 279 279 280 279 279 282 282 283 285 286 286 287 288 289 290 290 291 292 292
291 291 290 289 287 287 286 285 284 283 282 281 280 280 281 280 281 281 280 278 276 277 279 278 278 278 279 278 279 281 277 281 283 284 284 285 286 287 287 288 289 289 290
290 290 289 287 285 285 284 283 282 281 281 281 280 280 280 279 279 279 279 279 277 273 274 277 275 278 278 278 278 277 276 279 281 282 282 284 285 286 285 286 287 287 288
289 288 286 285 284 283 283 282 282 281 281 280 280 279 279 278 277 278 278 277 277 275 273 276 275 276 276 277 278 276 276 278 278 279 281 282 283 284 284 284 285 286 286
286 285 284 284 283 282 282 281 281 280 280 279 279 279 278 278 276 276 277 277 276 276 274 274 275 275 275 274 275 275 275 274 274 277 280 281 282 281 282 282 283 283 284
286 285 284 284 283 283 282 281 280 280 279 279 279 278 277 278 276 276 276 276 275 275 274 271 273 273 273 273 273 273 273 275 274 276 279 280 280 279 280 280 281 281 281
284 284 284 283 282 282 281 281 280 280 280 279 279 277 277 276 276 275 275 274 275 275 274 273 271 273 272 273 272 272 272 272 274 275 276 277 277 278 278 279 279 279 278
283 283 283 283 282 282 281 281 280 280 279 279 279 278 277 276 276 275 276 275 275 274 273 272 272 271 271 272 271 269 268 271 270 272 273 274 274 275 276 276 276 275 277
282 281 281 281 281 281 282 281 280 279 278 278 279 278 278 277 279 278 277 275 274 273 272 271 270 269 269 269 267 269 268 268 268 269 269 268 269 269 270 272 272 274 277
280 280 280 280 280 281 284 285 282 278 278 278 277 277 277 277 279 280 279 279 277 273 272 270 269 268 269 268 269 268 267 265 262 268 266 265 268 267 268 268 273 275 276
279 278 278 278 278 279 285 286 285 279 278 277 277 277 277 278 276 276 278 278 276 276 275 272 269 269 267 268 269 267 266 264 263 265 265 263 266 265 267 268 272 274 276
277 277 277 277 277 278 283 285 285 280 278 277 277 277 276 276 276 275 275 273 273 272 272 272 271 269 269 270 269 268 264 263 263 264 266 259 265 263 265 266 271 273 274
277 277 277 277 276 276 282 284 284 280 279 277 277 277 276 275 278 280 275 272 272 271 273 273 272 272 271 270 270 264 258 258 257 261 264 261 262 261 263 263 266 270 271
277 276 277 276 276 276 281 283 283 279 277 276 276 276 278 276 279 280 275 272 269 270 268 264 265 265 266 266 267 264 262 257 257 254 263 260 261 260 257 261 263 264 264
Wind_Speed
2 2 2 3 4 4 3 3 3 4 5 5 5 5 5 5 6 5 6 19 19 17 16 17 17 16 14 16 19 20 20 20 20 20 20 21 21 21 20 20 21 22 22
3 3 3 4 4 3 3 3 4 4 4 4 5 5 5 6 9 9 6 8 18 18 18 17 16 15 14 19 19 20 21 20 21 21 22 21 21 21 22 22 21 22 22
5 4 4 4 3 3 5 4 5 5 5 5 6 5 6 9 9 10 8 6 7 17 19 17 16 14 21 20 22 19 19 21 20 21 21 22 22 23 22 22 23 24 24
6 5 4 3 3 4 4 4 4 4 4 4 4 5 6 9 10 10 8 7 7 6 11 21 21 21 20 21 21 20 21 21 21 21 21 21 22 23 23 23 23 24 25
6 6 4 4 4 4 4 4 4 3 4 4 5 5 5 7 8 7 9 9 9 8 6 18 25 24 23 21 20 21 21 21 21 22 22 22 22 23 23 23 24 25 26
6 6 4 4 4 4 4 4 4 5 4 3 6 7 5 6 7 7 7 7 8 9 9 11 9 11 20 20 21 22 22 22 21 21 22 22 23 23 23 25 26 26 27
6 6 4 5 4 5 4 2 3 5 7 4 3 3 5 5 7 6 4 6 8 8 9 8 6 6 7 19 22 22 22 23 23 23 22 23 23 24 25 26 26 26 26
6 6 5 5 5 4 6 5 4 2 3 5 3 2 2 0 4 6 4 6 6 5 7 8 9 9 7 5 14 21 21 23 23 23 23 23 23 25 26 26 27 28 29
6 6 6 5 5 4 4 4 4 4 3 4 7 2 2 2 1 2 5 4 6 5 5 5 7 8 7 6 8 13 21 23 23 23 23 24 25 27 27 27 29 29 28
6 5 6 5 5 4 5 4 4 4 3 3 3 5 6 1 2 2 2 4 4 5 5 5 5 6 7 7 11 17 20 23 23 23 24 25 27 27 28 28 28 29 29
5 5 5 5 6 4 5 6 5 7 4 3 2 2 4 4 5 3 2 4 3 2 3 3 4 3 6 6 6 12 21 24 23 24 25 25 26 26 28 28 28 30 31
4 5 5 5 5 5 5 5 6 7 5 5 4 4 2 2 2 3 2 2 2 3 1 3 3 2 6 6 11 20 22 25 24 25 25 26 26 26 27 28 29 30 30
2 4 4 5 4 5 5 5 6 6 4 5 5 3 3 4 2 2 2 1 2 3 2 2 3 3 7 6 7 19 21 24 24 26 25 25 25 27 26 28 29 30 30
2 5 5 6 5 5 5 4 4 5 5 5 6 5 4 3 3 1 2 1 2 2 3 4 2 4 7 6 12 19 13 23 23 24 25 25 26 27 26 28 30 30 30
3 4 6 6 5 5 6 5 4 5 5 4 5 5 4 3 3 3 3 2 1 2 3 2 3 4 5 6 10 8 11 19 22 22 24 24 26 26 28 29 30 30 31
4 6 5 6 5 5 6 6 4 4 5 3 4 5 4 3 3 2 2 3 2 2 3 1 2 2 4 6 9 8 10 17 19 21 22 24 26 25 27 30 30 31 31
6 6 6 6 5 5 5 5 5 5 6 5 4 5 4 4 3 2 3 2 1 1 3 3 2 3 3 5 6 7 9 10 8 19 23 24 25 26 30 30 31 31 32
5 6 6 5 5 5 6 6 6 5 6 5 5 5 5 3 3 2 2 1 1 2 2 6 5 3 4 6 6 9 9 10 9 16 24 25 22 28 30 29 31 31 32
5 5 6 6 6 6 6 5 5 5 5 5 6 6 5 5 4 3 3 1 2 2 3 4 5 2 4 5 8 8 9 10 9 19 20 21 23 30 28 28 30 32 32
6 6 5 6 6 6 6 5 5 5 5 5 5 5 6 5 5 4 3 2 1 2 3 4 4 6 5 7 7 8 9 8 12 11 12 16 27 25 25 25 30 31 31
6 5 6 5 5 5 4 5 5 5 6 6 5 5 5 6 8 7 3 3 2 2 2 3 4 5 6 7 9 8 10 11 11 6 5 13 12 10 10 17 24 29 34
5 5 6 6 6 4 9 11 8 5 5 6 6 6 6 7 9 8 7 5 3 3 3 2 4 5 7 7 6 8 9 10 10 2 12 14 10 8 10 10 28 32 33
5 7 6 6 6 6 12 13 12 4 5 5 6 6 6 5 6 4 7 7 3 5 3 3 4 4 7 8 8 9 9 9 10 13 13 13 8 10 9 12 29 29 29
6 5 6 6 6 6 13 14 14 5 5 6 6 6 7 7 7 6 5 4 4 3 3 3 2 2 5 5 5 7 9 9 9 10 9 7 11 14 13 11 24 25 35
5 5 5 6 7 6 13 16 14 6 8 8 7 7 8 7 12 15 6 5 4 3 3 2 5 8 9 10 10 4 5 8 6 6 3 7 9 17 14 9 9 31 33
6 4 6 6 7 8 14 17 15 6 9 6 7 8 14 10 15 16 6 5 5 4 2 1 2 4 5 6 9 5 4 5 6 5 3 11 9 10 12 2 16 12 16
Wind_Direction
150 161 95 68 50 52 63 66 60 51 39 23 33 39 35 58 71 72 64 51 54 57 53 46 41 36 35 44 50 44 42 29 20 14 11 7 4 0 358 358 353 350 348
136 94 81 63 59 60 57 64 55 49 34 25 31 28 40 63 65 68 59 49 53 52 47 45 41 42 45 54 49 38 27 18 17 12 8 3 2 2 359 355 351 347 345
100 94 81 75 62 55 59 57 51 43 31 20 30 34 59 71 70 65 56 49 40 41 46 45 45 47 51 47 38 25 19 17 14 11 6 3 2 358 355 353 353 351 348
90 88 88 71 58 58 64 55 36 44 32 34 36 43 58 74 73 63 55 46 44 37 34 48 49 43 44 37 29 23 20 16 14 9 6 4 0 356 354 352 351 350 346
85 96 86 71 58 62 61 66 45 61 36 27 76 64 58 67 63 59 51 47 43 35 43 55 54 49 43 34 26 19 15 11 10 6 3 1 357 353 350 348 349 347 340
70 80 72 67 65 70 55 60 79 47 52 17 82 72 58 66 71 59 48 46 44 42 51 53 50 41 39 32 23 16 11 8 6 4 1 358 355 350 348 349 345 341 339
72 80 78 68 49 63 59 55 94 58 40 9 105 62 61 60 71 52 51 47 53 59 65 61 57 48 28 28 19 15 10 7 4 1 359 358 352 350 349 343 341 338 336
69 83 82 72 61 64 45 37 42 92 63 15 96 100 144 150 73 61 38 60 58 65 65 61 57 49 34 16 18 14 11 5 3 358 357 354 350 349 344 341 339 337 334
76 79 79 85 77 69 64 48 39 69 119 41 43 116 130 189 12 145 54 60 62 60 54 52 56 45 33 14 18 5 7 3 359 358 355 351 350 346 342 341 337 333 330
84 87 87 81 81 74 74 61 43 55 86 68 49 52 53 81 118 330 46 44 54 65 64 54 46 43 26 13 7 1 3 0 357 355 354 350 349 343 342 338 335 332 332
62 77 89 93 84 73 72 73 58 55 43 79 63 57 51 51 47 93 305 337 12 35 84 83 71 47 31 15 348 352 358 357 356 354 350 350 344 341 339 336 336 333 334
73 54 64 67 75 84 72 73 73 67 70 69 59 50 78 92 52 59 40 328 280 284 180 84 77 41 36 10 357 356 354 352 352 352 346 346 341 338 334 336 335 332 328
126 108 94 88 77 91 93 82 84 84 71 80 79 71 55 56 70 77 81 322 331 316 315 156 73 43 23 1 351 353 347 349 347 349 343 340 336 335 332 333 332 329 327
116 114 107 99 99 87 83 89 92 93 91 89 94 80 86 69 62 57 119 109 318 296 313 295 5 30 9 345 346 352 341 343 338 340 336 335 335 331 335 330 328 325 325
118 103 103 99 101 124 119 119 102 103 106 107 103 105 95 75 69 75 76 93 135 314 288 305 322 23 350 338 342 351 329 325 337 335 333 329 329 324 329 329 325 324 324
135 133 122 124 152 145 131 125 119 132 118 110 110 106 105 105 97 93 98 92 86 182 258 260 282 308 328 329 329 331 318 325 325 330 324 323 327 329 327 326 324 323 323
158 139 146 162 161 151 133 128 139 134 125 124 123 128 121 143 127 128 103 94 127 237 261 285 267 306 313 313 327 317 321 318 320 323 320 323 322 326 326 325 323 323 322
147 153 167 165 163 156 158 159 157 147 151 159 158 160 167 157 148 157 132 106 213 258 262 292 294 323 316 330 316 325 327 314 317 317 324 321 322 325 323 322 322 321 322
159 163 172 169 175 170 169 167 158 162 179 173 179 179 180 180 183 192 184 208 240 301 250 277 291 315 316 329 331 323 314 311 313 323 321 310 323 321 320 322 320 321 321
174 183 180 184 181 178 180 169 169 176 191 190 194 188 189 196 196 202 205 230 275 281 274 283 314 313 328 333 320 324 324 326 316 320 308 310 322 314 314 316 318 319 317
191 187 180 187 192 190 186 180 186 193 198 201 204 202 200 201 207 205 193 221 224 248 286 323 316 317 320 333 338 330 322 323 317 302 328 312 311 303 305 317 309 312 317
193 194 195 196 200 205 208 208 197 203 205 204 207 216 205 208 217 222 238 259 260 308 314 321 307 308 317 325 321 329 324 333 333 56 326 302 301 296 308 307 311 317 313
194 210 208 203 216 217 221 220 218 210 215 212 213 210 210 206 204 221 247 261 275 282 291 300 286 321 315 320 329 325 325 322 299 304 313 299 306 309 309 312 310 314 318
212 213 220 216 220 225 228 228 227 204 225 227 220 212 210 200 202 210 217 220 235 221 238 245 113 289 280 319 321 335 331 304 294 286 313 286 329 313 319 308 306 318 323
223 218 220 216 223 228 230 232 229 212 228 230 224 215 214 204 213 225 200 221 232 226 265 328 347 339 342 341 346 6 340 336 320 315 325 326 326 319 320 304 311 322 320
230 221 236 220 219 231 232 235 233 214 227 224 228 219 216 209 221 225 213 201 228 241 172 33 339 357 0 346 3 8 322 324 320 318 307 329 333 350 317 276 324 316 317